TimeAKDT,TemperatureF,Dew PointF,Humidity,Sea Level PressureIn,VisibilityMPH,Wind Direction,Wind SpeedMPH,Gust SpeedMPH,PrecipitationIn,Events,Conditions,WindDirDegrees,DateUTC
12:16 AM,57.2,51.8,82,29.70,9.0,SSW,10.4,17.3,N/A,,Overcast,210,2013-08-18 08:16:00
12:36 AM,55.4,51.8,88,29.70,10.0,SW,11.5,16.1,N/A,,Mostly Cloudy,220,2013-08-18 08:36:00
1:56 AM,55.4,51.8,88,29.72,10.0,Calm,Calm,-,N/A,,Overcast,0,2013-08-18 09:56:00
2:16 AM,53.6,51.8,94,29.72,10.0,ENE,3.5,-,N/A,,Overcast,60,2013-08-18 10:16:00
2:36 AM,53.6,51.8,94,29.73,10.0,Calm,Calm,-,N/A,,Overcast,0,2013-08-18 10:36:00
2:56 AM,53.6,51.8,94,29.73,8.0,Calm,Calm,-,0.02,,Overcast,0,2013-08-18 10:56:00
3:16 AM,53.6,51.8,94,29.74,9.0,Calm,Calm,-,0.02,,Overcast,0,2013-08-18 11:16:00
3:56 AM,53.6,51.8,94,29.73,10.0,Calm,Calm,-,0.07,,Overcast,0,2013-08-18 11:56:00
4:16 AM,53.6,51.8,94,29.74,10.0,Calm,Calm,-,N/A,,Overcast,0,2013-08-18 12:16:00
4:36 AM,53.6,51.8,94,29.74,10.0,Calm,Calm,-,N/A,,Overcast,0,2013-08-18 12:36:00
4:56 AM,53.6,50.0,88,29.74,10.0,Calm,Calm,-,N/A,,Overcast,0,2013-08-18 12:56:00
5:16 AM,53.6,51.8,94,29.74,10.0,Calm,Calm,-,N/A,,Overcast,0,2013-08-18 13:16:00
5:56 AM,53.6,51.8,94,29.75,10.0,Calm,Calm,-,0.01,,Overcast,0,2013-08-18 13:56:00
6:16 AM,53.6,51.8,94,29.75,7.0,Calm,Calm,-,N/A,,Mostly Cloudy,0,2013-08-18 14:16:00
6:56 AM,53.6,50.0,88,29.75,7.0,Calm,Calm,-,N/A,,Overcast,0,2013-08-18 14:56:00
7:16 AM,53.6,51.8,94,29.75,7.0,Calm,Calm,-,N/A,,Overcast,0,2013-08-18 15:16:00
7:36 AM,53.6,51.8,94,29.75,7.0,Calm,Calm,-,N/A,,Overcast,0,2013-08-18 15:36:00
7:56 AM,53.6,51.8,94,29.75,10.0,Calm,Calm,-,N/A,,Mostly Cloudy,0,2013-08-18 15:56:00
8:16 AM,53.6,51.8,94,29.75,10.0,Calm,Calm,-,N/A,,Mostly Cloudy,0,2013-08-18 16:16:00
8:36 AM,55.4,51.8,88,29.75,10.0,South,3.5,-,N/A,,Mostly Cloudy,170,2013-08-18 16:36:00
8:56 AM,55.4,51.8,88,29.76,10.0,Calm,Calm,-,N/A,,Mostly Cloudy,0,2013-08-18 16:56:00
9:36 AM,55.4,51.8,88,29.76,10.0,Calm,Calm,-,N/A,,Mostly Cloudy,0,2013-08-18 17:36:00
9:56 AM,57.2,51.8,82,29.76,10.0,East,3.5,-,N/A,,Mostly Cloudy,80,2013-08-18 17:56:00
10:16 AM,57.2,51.8,82,29.76,10.0,Calm,Calm,-,N/A,,Mostly Cloudy,0,2013-08-18 18:16:00
10:36 AM,57.2,51.8,82,29.76,10.0,East,5.8,-,N/A,,Mostly Cloudy,80,2013-08-18 18:36:00
10:56 AM,57.2,51.8,82,29.76,10.0,East,6.9,-,N/A,,Overcast,100,2013-08-18 18:56:00
11:16 AM,57.2,51.8,82,29.76,10.0,ESE,3.5,-,N/A,,Overcast,120,2013-08-18 19:16:00
11:36 AM,57.2,51.8,82,29.77,10.0,Calm,Calm,-,N/A,,Overcast,0,2013-08-18 19:36:00
11:56 AM,57.2,51.8,82,29.77,10.0,East,5.8,-,N/A,,Mostly Cloudy,100,2013-08-18 19:56:00
12:16 PM,57.2,51.8,82,29.77,10.0,ESE,8.1,-,N/A,,Mostly Cloudy,110,2013-08-18 20:16:00
12:36 PM,57.2,51.8,82,29.77,10.0,East,5.8,-,N/A,,Mostly Cloudy,100,2013-08-18 20:36:00
12:56 PM,57.2,51.8,82,29.77,10.0,East,5.8,-,N/A,,Mostly Cloudy,90,2013-08-18 20:56:00
1:16 PM,57.2,50.0,77,29.77,10.0,ESE,5.8,-,N/A,,Mostly Cloudy,110,2013-08-18 21:16:00
1:36 PM,57.2,51.8,82,29.77,10.0,ESE,6.9,-,N/A,,Mostly Cloudy,110,2013-08-18 21:36:00
1:56 PM,57.2,51.8,82,29.76,10.0,East,4.6,-,0.01,,Overcast,90,2013-08-18 21:56:00
2:16 PM,57.2,51.8,82,29.76,10.0,East,6.9,-,N/A,,Overcast,100,2013-08-18 22:16:00
2:36 PM,57.2,48.2,72,29.76,10.0,WSW,4.6,-,N/A,,Overcast,250,2013-08-18 22:36:00
3:16 PM,57.2,48.2,72,29.75,10.0,Calm,Calm,-,N/A,,Overcast,0,2013-08-18 23:16:00
3:36 PM,57.2,48.2,72,29.75,10.0,Calm,Calm,-,N/A,,Overcast,0,2013-08-18 23:36:00
3:56 PM,55.4,48.2,77,29.75,10.0,ESE,6.9,-,N/A,,Overcast,110,2013-08-18 23:56:00
4:16 PM,55.4,50.0,82,29.77,10.0,SSE,4.6,-,N/A,,Overcast,150,2013-08-19 00:16:00
4:36 PM,53.6,48.2,82,29.78,5.0,WSW,12.7,16.1,N/A,,Overcast,240,2013-08-19 00:36:00
5:16 PM,51.8,48.2,88,29.79,6.0,ENE,4.6,-,N/A,,Overcast,60,2013-08-19 01:16:00
5:36 PM,51.8,48.2,88,29.79,6.0,Calm,Calm,-,N/A,,Overcast,0,2013-08-19 01:36:00
5:56 PM,51.8,48.2,88,29.78,6.0,Calm,Calm,-,N/A,,Overcast,0,2013-08-19 01:56:00
6:36 PM,51.8,48.2,88,29.79,6.0,NE,3.5,-,N/A,,Overcast,50,2013-08-19 02:36:00
6:56 PM,51.8,48.2,88,29.78,5.0,NE,3.5,-,0.05,,Overcast,40,2013-08-19 02:56:00
7:36 PM,51.8,46.4,82,29.78,5.0,Calm,Calm,-,0.01,,Overcast,0,2013-08-19 03:36:00
7:56 PM,51.8,48.2,88,29.78,7.0,NNE,6.9,-,0.02,,Overcast,30,2013-08-19 03:56:00
8:16 PM,50.0,46.4,87,29.78,7.0,NE,4.6,-,0.01,,Overcast,50,2013-08-19 04:16:00
8:36 PM,50.0,46.4,87,29.78,7.0,Calm,Calm,-,0.01,,Overcast,0,2013-08-19 04:36:00
8:56 PM,50.0,46.4,87,29.78,7.0,WNW,3.5,-,0.01,,Overcast,300,2013-08-19 04:56:00
9:16 PM,50.0,44.6,82,29.78,7.0,Calm,Calm,-,N/A,,Overcast,0,2013-08-19 05:16:00
9:56 PM,50.0,46.4,87,29.78,7.0,Calm,Calm,-,N/A,,Overcast,0,2013-08-19 05:56:00
10:16 PM,50.0,46.4,87,29.78,10.0,WSW,3.5,-,N/A,,Overcast,250,2013-08-19 06:16:00
10:36 PM,50.0,46.4,87,29.78,10.0,Calm,Calm,-,N/A,,Overcast,0,2013-08-19 06:36:00
10:56 PM,50.0,46.4,87,29.78,10.0,Calm,Calm,-,N/A,,Mostly Cloudy,0,2013-08-19 06:56:00
11:16 PM,50.0,46.4,87,29.78,10.0,Calm,Calm,-,N/A,,Overcast,0,2013-08-19 07:16:00
11:36 PM,50.0,46.4,87,29.78,10.0,Calm,Calm,-,N/A,,Overcast,0,2013-08-19 07:36:00
11:56 PM,50.0,46.4,87,29.78,10.0,Calm,Calm,-,N/A,,Overcast,0,2013-08-19 07:56:00